星链-3941 (STARLINK-3941 )

导读 | 豆包AI

STARLINK-3941是美国SpaceX星链互联网卫星项目中的一颗卫星,于2022年5月14日发射入轨,属于星链低轨星座组网卫星。它运行在近地轨道,旨在为全球提供低延迟、高速率的宽带互联网服务,尤其覆盖偏远、网络基础设施薄弱区域,助力星链全球卫星互联网组网架构搭建。

基本信息
目录编号:
52638
目录名称:
STARLINK-3941
国际标识:
2022-052AS
轨道中心:
EARTH
卫星名称:
星链-3941
卫星全名:
星链-3941 (STARLINK-3941 )
卫星状态:
在轨 (已飞行1401 天)
发射日期:
2022-05-14 UTC
国别 :
美国 (US)
星等 :
--
轨道信息
数据来源 国际轨道数据 AOE轨道数据
星历时间 2026-03-14T19:17:03+0800
14小时前
查看轨道信息
2026-03-14T11:00:00+0800
22小时前
查看轨道信息
半长轴 6917.886km 6917.911km
偏心率 0.0001296 0.0001216
轨道倾角 53.216° 53.216°
近地点辐角 94.780° 84.258°
升交点赤经 247.663° 249.215°
平近点角 265.334° 199.914°
近地点 538.852km 538.932km
远地点 540.646km 540.616km
周期 95.438分钟 95.438分钟
每日圈数 15.088383 15.088301
详细信息
固有亮度:
5
最大亮度:
2.5
卫星平台:
Starlink v1.5
覆盖范围:
全球
运营商:
太空探索技术公司
运营商所在国:
美国
制造商(研发单位):
太空探索技术公司
制造商所在国:
美国
使用方式:
暂无
卫星简介
星链(Starlink)计划是由太空探索技术公司(SpaceX)提出的一个巨型低轨卫星互联网星座项目,计划在2019年至2024年间在太空搭建由约1.2万颗卫星组成的“星链”网络,其中1584颗将部署在地球上空550千米处的近地轨道,并从2020年开始工作。该卫星仍在工作。
2D轨道图
3D轨道图
轨道高度分析图
轨道倾角分析图
轨道综合分析图
查看轨道综合分析图